QPF
0.00 0.00 0.00 0.00 0.00 0.00 0.00 0.00 0.00 0.00 0.00 0.00 0.00 0.00 0.00 0.00 0.00 0.00 0.00 0.00 0.00 0.00 0.00 0.00 0.00 0.00 0.00 0.00 0.00 0.00 0.00 0.00 0.00 0.00 0.00 0.00 0.00 0.00 0.00 0.00 0.00 0.00 0.00 0.00
0.00 0.00 0.00 0.00 0.00 0.00 0.00 0.00 0.00 0.00 0.00 0.00 0.00 0.00 0.00 0.00 0.00 0.00 0.00 0.00 0.00 0.00 0.00 0.00 0.00 0.00 0.00 0.00 0.00 0.00 0.00 0.00 0.00 0.00 0.00 0.00 0.00 0.00 0.00 0.00 0.00 0.00 0.00 0.00
0.00 0.00 0.00 0.00 0.00 0.00 0.00 0.00 0.00 0.00 0.00 0.00 0.00 0.00 0.00 0.00 0.00 0.00 0.00 0.00 0.00 0.00 0.00 0.00 0.00 0.00 0.00 0.00 0.00 0.00 0.00 0.00 0.00 0.00 0.00 0.00 0.00 0.00 0.00 0.00 0.00 0.00 0.00 0.00
0.00 0.00 0.00 0.00 0.00 0.00 0.00 0.00 0.00 0.00 0.00 0.00 0.00 0.00 0.00 0.00 0.00 0.00 0.00 0.00 0.00 0.00 0.00 0.00 0.00 0.00 0.00 0.00 0.00 0.00 0.00 0.00 0.00 0.00 0.00 0.00 0.00 0.00 0.00 0.00 0.00 0.00 0.00 0.00
0.00 0.00 0.00 0.00 0.00 0.00 0.00 0.00 0.00 0.00 0.00 0.00 0.00 0.00 0.00 0.00 0.00 0.00 0.00 0.00 0.00 0.00 0.00 0.00 0.00 0.00 0.00 0.00 0.00 0.00 0.00 0.00 0.00 0.00 0.00 0.00 0.00 0.00 0.00 0.00 0.00 0.00 0.00 0.00
0.01 0.00 0.00 0.00 0.00 0.00 0.00 0.00 0.00 0.00 0.00 0.00 0.00 0.00 0.00 0.00 0.00 0.00 0.00 0.00 0.00 0.00 0.00 0.00 0.00 0.00 0.00 0.00 0.00 0.00 0.00 0.00 0.00 0.00 0.00 0.00 0.00 0.00 0.00 0.00 0.00 0.00 0.00 0.00
0.00 0.00 0.00 0.00 0.00 0.00 0.00 0.00 0.00 0.00 0.00 0.00 0.00 0.00 0.00 0.00 0.00 0.00 0.00 0.00 0.00 0.00 0.00 0.00 0.00 0.00 0.00 0.00 0.00 0.00 0.00 0.00 0.00 0.00 0.00 0.00 0.00 0.00 0.00 0.00 0.00 0.00 0.00 0.00
0.00 0.00 0.00 0.00 0.00 0.00 0.00 0.00 0.00 0.00 0.00 0.00 0.00 0.00 0.00 0.00 0.00 0.00 0.00 0.00 0.00 0.00 0.00 0.00 0.00 0.00 0.00 0.00 0.00 0.00 0.00 0.00 0.00 0.00 0.00 0.00 0.00 0.00 0.00 0.00 0.00 0.00 0.01 0.01
0.00 0.00 0.00 0.00 0.00 0.00 0.00 0.00 0.00 0.00 0.00 0.00 0.00 0.00 0.00 0.00 0.00 0.00 0.00 0.00 0.00 0.00 0.00 0.00 0.00 0.00 0.00 0.00 0.00 0.00 0.00 0.00 0.00 0.00 0.00 0.00 0.00 0.00 0.00 0.00 0.00 0.00 0.01 0.01
0.00 0.00 0.00 0.00 0.00 0.00 0.00 0.00 0.00 0.00 0.00 0.00 0.00 0.00 0.00 0.00 0.00 0.00 0.00 0.00 0.00 0.00 0.00 0.00 0.00 0.00 0.00 0.00 0.00 0.00 0.00 0.00 0.00 0.00 0.00 0.00 0.00 0.00 0.00 0.00 0.00 0.01 0.01 0.01
0.00 0.00 0.00 0.00 0.00 0.00 0.00 0.00 0.00 0.00 0.00 0.00 0.00 0.00 0.00 0.00 0.00 0.00 0.00 0.00 0.00 0.00 0.00 0.00 0.00 0.00 0.00 0.00 0.00 0.00 0.00 0.00 0.00 0.00 0.00 0.00 0.00 0.00 0.00 0.00 0.00 0.00 0.00 0.01
0.00 0.00 0.00 0.00 0.00 0.00 0.00 0.00 0.00 0.00 0.00 0.00 0.00 0.00 0.00 0.00 0.00 0.00 0.00 0.00 0.00 0.00 0.00 0.00 0.00 0.00 0.00 0.00 0.00 0.00 0.00 0.00 0.00 0.00 0.00 0.00 0.00 0.00 0.00 0.00 0.00 0.00 0.00 0.00
0.00 0.00 0.00 0.00 0.00 0.00 0.00 0.00 0.00 0.00 0.00 0.00 0.00 0.00 0.00 0.00 0.00 0.00 0.00 0.00 0.00 0.01 0.01 0.01 0.01 0.01 0.01 0.00 0.00 0.00 0.00 0.00 0.00 0.00 0.00 0.00 0.00 0.00 0.00 0.00 0.00 0.00 0.00 0.00
0.00 0.00 0.00 0.00 0.00 0.00 0.00 0.00 0.00 0.00 0.00 0.00 0.00 0.00 0.00 0.00 0.00 0.00 0.01 0.01 0.01 0.01 0.01 0.01 0.01 0.01 0.00 0.00 0.00 0.00 0.00 0.00 0.00 0.00 0.00 0.00 0.00 0.00 0.00 0.00 0.00 0.01 0.01 0.01
0.00 0.00 0.00 0.00 0.00 0.00 0.00 0.00 0.00 0.00 0.00 0.00 0.00 0.00 0.00 0.00 0.01 0.01 0.01 0.01 0.01 0.01 0.01 0.01 0.00 0.00 0.00 0.00 0.00 0.00 0.00 0.00 0.00 0.00 0.00 0.00 0.00 0.00 0.00 0.00 0.01 0.02 0.03 0.03
0.00 0.00 0.00 0.00 0.00 0.00 0.00 0.00 0.00 0.00 0.00 0.00 0.00 0.00 0.00 0.01 0.01 0.01 0.01 0.01 0.01 0.01 0.00 0.00 0.00 0.00 0.00 0.00 0.00 0.00 0.00 0.00 0.00 0.00 0.00 0.00 0.00 0.00 0.00 0.00 0.01 0.02 0.04 0.04
0.00 0.00 0.00 0.00 0.00 0.00 0.00 0.00 0.00 0.00 0.00 0.00 0.00 0.00 0.00 0.00 0.00 0.00 0.00 0.00 0.00 0.00 0.00 0.00 0.00 0.00 0.00 0.00 0.00 0.00 0.00 0.00 0.00 0.00 0.00 0.00 0.00 0.00 0.00 0.00 0.01 0.02 0.05 0.03
0.00 0.00 0.00 0.00 0.00 0.00 0.00 0.00 0.00 0.00 0.00 0.00 0.00 0.00 0.00 0.00 0.00 0.00 0.00 0.00 0.00 0.00 0.00 0.00 0.00 0.00 0.00 0.00 0.00 0.00 0.00 0.00 0.00 0.00 0.00 0.00 0.00 0.00 0.00 0.00 0.01 0.03 0.05 0.03
0.00 0.00 0.00 0.00 0.00 0.00 0.00 0.00 0.00 0.00 0.00 0.00 0.00 0.00 0.00 0.00 0.00 0.00 0.00 0.00 0.00 0.00 0.00 0.00 0.00 0.00 0.00 0.00 0.00 0.00 0.00 0.00 0.00 0.00 0.00 0.00 0.00 0.00 0.00 0.00 0.01 0.03 0.03 0.03
0.00 0.00 0.00 0.00 0.00 0.00 0.00 0.00 0.00 0.00 0.00 0.00 0.00 0.00 0.00 0.00 0.00 0.00 0.00 0.00 0.00 0.00 0.00 0.00 0.00 0.00 0.00 0.00 0.00 0.00 0.01 0.01 0.01 0.01 0.01 0.01 0.00 0.00 0.00 0.00 0.01 0.03 0.03 0.04
0.00 0.00 0.00 0.00 0.00 0.00 0.00 0.00 0.00 0.00 0.00 0.00 0.00 0.00 0.00 0.00 0.00 0.00 0.00 0.00 0.00 0.00 0.00 0.00 0.00 0.00 0.00 0.00 0.01 0.01 0.01 0.02 0.02 0.01 0.01 0.01 0.00 0.01 0.01 0.01 0.02 0.03 0.05 0.06
0.00 0.00 0.00 0.00 0.00 0.00 0.00 0.00 0.00 0.00 0.00 0.00 0.00 0.00 0.00 0.00 0.00 0.00 0.00 0.00 0.00 0.00 0.00 0.00 0.00 0.00 0.00 0.01 0.01 0.01 0.01 0.02 0.01 0.02 0.02 0.01 0.01 0.01 0.01 0.02 0.02 0.03 0.04 0.05
0.00 0.00 0.00 0.00 0.00 0.00 0.00 0.00 0.00 0.00 0.00 0.00 0.00 0.00 0.00 0.00 0.00 0.00 0.00 0.00 0.00 0.00 0.00 0.00 0.00 0.01 0.00 0.01 0.01 0.02 0.03 0.03 0.03 0.02 0.02 0.02 0.01 0.01 0.02 0.02 0.02 0.03 0.04 0.03
0.00 0.00 0.00 0.00 0.00 0.00 0.00 0.00 0.00 0.00 0.00 0.00 0.00 0.00 0.00 0.00 0.00 0.00 0.00 0.00 0.00 0.00 0.00 0.01 0.01 0.01 0.01 0.01 0.02 0.03 0.03 0.03 0.04 0.03 0.02 0.02 0.01 0.01 0.01 0.01 0.01 0.03 0.03 0.02
0.00 0.00 0.00 0.00 0.00 0.00 0.00 0.00 0.00 0.00 0.00 0.00 0.00 0.00 0.00 0.00 0.00 0.01 0.00 0.01 0.01 0.01 0.02 0.02 0.02 0.02 0.03 0.03 0.04 0.04 0.05 0.06 0.05 0.04 0.02 0.01 0.01 0.01 0.01 0.01 0.01 0.02 0.02 0.02
0.00 0.00 0.00 0.00 0.00 0.00 0.00 0.00 0.00 0.00 0.00 0.00 0.00 0.00 0.00 0.00 0.01 0.01 0.01 0.01 0.02 0.04 0.05 0.06 0.06 0.06 0.06 0.07 0.09 0.10 0.09 0.07 0.05 0.04 0.02 0.01 0.01 0.01 0.01 0.01 0.01 0.02 0.02 0.02
0.00 0.00 0.00 0.00 0.00 0.00 0.00 0.00 0.00 0.00 0.00 0.00 0.00 0.00 0.00 0.01 0.01 0.02 0.02 0.03 0.05 0.07 0.08 0.09 0.09 0.09 0.11 0.13 0.13 0.13 0.11 0.08 0.05 0.03 0.02 0.01 0.00 0.00 0.01 0.01 0.01 0.02 0.03 0.03
MSLP
1011.99 1012.02 1012.03 1012.04 1012.03 1011.99 1011.91 1011.77 1011.57 1011.30 1010.98 1010.64 1010.33 1010.07 1009.92 1009.88 1009.97 1010.17 1010.47 1010.84 1011.23 1011.62 1011.97 1012.28 1012.54 1012.76 1012.94 1013.09 1013.22 1013.34 1013.43 1013.49 1013.52 1013.50 1013.43 1013.33 1013.21 1013.07 1012.95 1012.85 1012.77 1012.73 1012.70 1012.68
1012.02 1012.00 1011.92 1011.80 1011.66 1011.49 1011.29 1011.06 1010.81 1010.53 1010.25 1009.98 1009.74 1009.57 1009.49 1009.50 1009.61 1009.82 1010.10 1010.42 1010.77 1011.12 1011.45 1011.74 1012.00 1012.23 1012.43 1012.61 1012.76 1012.90 1013.01 1013.08 1013.11 1013.09 1013.03 1012.94 1012.83 1012.70 1012.59 1012.51 1012.45 1012.41 1012.39 1012.37
1012.08 1012.00 1011.84 1011.62 1011.35 1011.06 1010.76 1010.45 1010.15 1009.85 1009.58 1009.34 1009.15 1009.03 1008.98 1009.02 1009.13 1009.32 1009.57 1009.86 1010.17 1010.49 1010.79 1011.09 1011.36 1011.62 1011.85 1012.07 1012.27 1012.44 1012.58 1012.67 1012.71 1012.70 1012.65 1012.56 1012.45 1012.34 1012.23 1012.15 1012.10 1012.06 1012.04 1012.00
1012.11 1011.99 1011.76 1011.46 1011.11 1010.73 1010.33 1009.95 1009.59 1009.26 1008.97 1008.73 1008.56 1008.45 1008.41 1008.44 1008.54 1008.71 1008.92 1009.18 1009.46 1009.76 1010.07 1010.38 1010.69 1010.99 1011.28 1011.55 1011.80 1012.01 1012.18 1012.29 1012.34 1012.34 1012.28 1012.18 1012.07 1011.94 1011.83 1011.74 1011.68 1011.63 1011.59 1011.54
1012.07 1011.91 1011.65 1011.30 1010.89 1010.44 1009.99 1009.54 1009.13 1008.75 1008.43 1008.17 1007.98 1007.85 1007.80 1007.81 1007.88 1008.02 1008.21 1008.44 1008.71 1009.01 1009.34 1009.68 1010.04 1010.40 1010.75 1011.08 1011.38 1011.64 1011.83 1011.96 1012.01 1012.00 1011.93 1011.81 1011.66 1011.51 1011.38 1011.26 1011.17 1011.10 1011.04 1010.97
1011.89 1011.72 1011.45 1011.09 1010.66 1010.18 1009.69 1009.21 1008.75 1008.33 1007.97 1007.67 1007.44 1007.27 1007.18 1007.16 1007.20 1007.31 1007.48 1007.70 1007.98 1008.30 1008.66 1009.05 1009.46 1009.87 1010.29 1010.67 1011.02 1011.31 1011.52 1011.66 1011.71 1011.67 1011.57 1011.42 1011.23 1011.04 1010.86 1010.70 1010.57 1010.47 1010.39 1010.30
1011.56 1011.41 1011.16 1010.83 1010.41 1009.95 1009.45 1008.95 1008.46 1008.01 1007.60 1007.25 1006.97 1006.76 1006.62 1006.56 1006.57 1006.65 1006.81 1007.03 1007.32 1007.66 1008.05 1008.48 1008.94 1009.41 1009.87 1010.30 1010.68 1010.99 1011.22 1011.35 1011.38 1011.33 1011.19 1010.99 1010.76 1010.52 1010.29 1010.09 1009.92 1009.78 1009.68 1009.58
1011.12 1011.02 1010.82 1010.54 1010.18 1009.76 1009.29 1008.79 1008.29 1007.81 1007.36 1006.97 1006.63 1006.37 1006.18 1006.07 1006.05 1006.10 1006.24 1006.46 1006.76 1007.11 1007.53 1007.99 1008.48 1008.98 1009.47 1009.92 1010.32 1010.64 1010.86 1010.98 1011.00 1010.91 1010.74 1010.51 1010.23 1009.95 1009.67 1009.43 1009.23 1009.08 1008.95 1008.86
1010.67 1010.64 1010.52 1010.32 1010.03 1009.67 1009.24 1008.77 1008.28 1007.78 1007.30 1006.86 1006.47 1006.15 1005.91 1005.76 1005.70 1005.72 1005.84 1006.04 1006.33 1006.68 1007.10 1007.56 1008.05 1008.55 1009.03 1009.48 1009.87 1010.18 1010.40 1010.50 1010.50 1010.40 1010.20 1009.94 1009.64 1009.32 1009.02 1008.76 1008.55 1008.38 1008.27 1008.18
1010.34 1010.38 1010.35 1010.24 1010.04 1009.75 1009.38 1008.94 1008.46 1007.96 1007.45 1006.97 1006.54 1006.17 1005.88 1005.68 1005.57 1005.56 1005.64 1005.81 1006.06 1006.38 1006.76 1007.18 1007.63 1008.09 1008.54 1008.95 1009.31 1009.59 1009.79 1009.87 1009.86 1009.74 1009.54 1009.27 1008.96 1008.65 1008.35 1008.08 1007.87 1007.72 1007.62 1007.57
1010.25 1010.37 1010.42 1010.39 1010.27 1010.04 1009.72 1009.32 1008.86 1008.35 1007.83 1007.32 1006.85 1006.44 1006.10 1005.85 1005.70 1005.63 1005.66 1005.77 1005.96 1006.22 1006.52 1006.87 1007.24 1007.62 1008.00 1008.34 1008.64 1008.87 1009.03 1009.10 1009.07 1008.96 1008.76 1008.51 1008.22 1007.92 1007.64 1007.40 1007.21 1007.09 1007.03 1007.01
1010.46 1010.64 1010.76 1010.79 1010.72 1010.55 1010.27 1009.89 1009.44 1008.94 1008.41 1007.88 1007.38 1006.94 1006.57 1006.28 1006.07 1005.95 1005.92 1005.95 1006.06 1006.21 1006.41 1006.65 1006.90 1007.17 1007.43 1007.68 1007.89 1008.06 1008.18 1008.22 1008.18 1008.08 1007.90 1007.68 1007.42 1007.16 1006.91 1006.71 1006.56 1006.47 1006.44 1006.46
1010.96 1011.18 1011.33 1011.39 1011.35 1011.20 1010.94 1010.57 1010.13 1009.63 1009.10 1008.57 1008.06 1007.61 1007.21 1006.89 1006.65 1006.47 1006.37 1006.32 1006.33 1006.37 1006.44 1006.54 1006.65 1006.78 1006.91 1007.04 1007.15 1007.24 1007.29 1007.30 1007.26 1007.16 1007.01 1006.81 1006.60 1006.37 1006.17 1006.01 1005.89 1005.83 1005.83 1005.88
1011.64 1011.87 1012.02 1012.08 1012.04 1011.88 1011.62 1011.26 1010.82 1010.33 1009.81 1009.29 1008.79 1008.34 1007.94 1007.61 1007.34 1007.12 1006.96 1006.83 1006.73 1006.66 1006.59 1006.54 1006.51 1006.48 1006.47 1006.47 1006.47 1006.47 1006.46 1006.42 1006.36 1006.26 1006.12 1005.95 1005.77 1005.59 1005.42 1005.28 1005.20 1005.16 1005.18 1005.23
1012.37 1012.58 1012.70 1012.73 1012.66 1012.48 1012.20 1011.84 1011.40 1010.93 1010.43 1009.93 1009.46 1009.04 1008.66 1008.33 1008.05 1007.81 1007.60 1007.40 1007.21 1007.02 1006.83 1006.65 1006.46 1006.29 1006.14 1006.00 1005.89 1005.80 1005.71 1005.62 1005.53 1005.42 1005.29 1005.13 1004.97 1004.81 1004.67 1004.55 1004.47 1004.45 1004.46 1004.51
1013.01 1013.17 1013.24 1013.22 1013.10 1012.89 1012.59 1012.22 1011.79 1011.34 1010.87 1010.41 1009.99 1009.60 1009.25 1008.94 1008.67 1008.42 1008.18 1007.93 1007.67 1007.39 1007.09 1006.78 1006.47 1006.17 1005.89 1005.64 1005.42 1005.23 1005.07 1004.93 1004.79 1004.66 1004.52 1004.37 1004.21 1004.06 1003.92 1003.81 1003.73 1003.70 1003.71 1003.74
1013.46 1013.56 1013.57 1013.49 1013.32 1013.07 1012.75 1012.37 1011.96 1011.53 1011.10 1010.69 1010.31 1009.97 1009.66 1009.38 1009.12 1008.87 1008.61 1008.32 1008.01 1007.66 1007.28 1006.88 1006.47 1006.06 1005.67 1005.32 1005.01 1004.74 1004.50 1004.31 1004.13 1003.97 1003.81 1003.65 1003.50 1003.34 1003.20 1003.09 1003.00 1002.95 1002.94 1002.96
1013.68 1013.72 1013.67 1013.54 1013.32 1013.04 1012.71 1012.33 1011.94 1011.53 1011.14 1010.77 1010.43 1010.13 1009.85 1009.60 1009.35 1009.10 1008.82 1008.51 1008.16 1007.76 1007.32 1006.86 1006.37 1005.89 1005.43 1004.99 1004.61 1004.27 1003.98 1003.73 1003.51 1003.32 1003.15 1002.98 1002.82 1002.66 1002.52 1002.40 1002.31 1002.25 1002.22 1002.22
1013.70 1013.69 1013.59 1013.42 1013.18 1012.88 1012.54 1012.17 1011.79 1011.41 1011.04 1010.70 1010.38 1010.10 1009.84 1009.59 1009.34 1009.08 1008.79 1008.46 1008.08 1007.65 1007.17 1006.66 1006.14 1005.61 1005.09 1004.61 1004.17 1003.79 1003.45 1003.17 1002.92 1002.71 1002.52 1002.35 1002.18 1002.04 1001.90 1001.79 1001.70 1001.64 1001.61 1001.61
1013.60 1013.56 1013.43 1013.23 1012.98 1012.67 1012.33 1011.97 1011.60 1011.23 1010.88 1010.54 1010.23 1009.94 1009.66 1009.40 1009.13 1008.84 1008.53 1008.18 1007.78 1007.33 1006.84 1006.31 1005.77 1005.21 1004.68 1004.17 1003.70 1003.29 1002.92 1002.61 1002.35 1002.12 1001.93 1001.76 1001.62 1001.49 1001.38 1001.29 1001.22 1001.18 1001.16 1001.16
1013.46 1013.39 1013.25 1013.05 1012.79 1012.49 1012.16 1011.80 1011.44 1011.06 1010.70 1010.35 1010.01 1009.69 1009.38 1009.08 1008.77 1008.46 1008.12 1007.74 1007.33 1006.88 1006.38 1005.86 1005.32 1004.77 1004.23 1003.72 1003.24 1002.81 1002.43 1002.11 1001.84 1001.61 1001.43 1001.28 1001.16 1001.06 1000.99 1000.93 1000.91 1000.90 1000.91 1000.93
1013.32 1013.24 1013.09 1012.89 1012.64 1012.35 1012.02 1011.67 1011.29 1010.91 1010.52 1010.13 1009.75 1009.38 1009.03 1008.68 1008.34 1007.99 1007.62 1007.24 1006.83 1006.39 1005.91 1005.41 1004.89 1004.37 1003.84 1003.34 1002.87 1002.44 1002.06 1001.73 1001.46 1001.24 1001.07 1000.94 1000.85 1000.80 1000.77 1000.77 1000.78 1000.81 1000.86 1000.90
1013.17 1013.08 1012.93 1012.74 1012.49 1012.21 1011.88 1011.52 1011.13 1010.72 1010.30 1009.87 1009.45 1009.04 1008.64 1008.25 1007.87 1007.51 1007.14 1006.77 1006.38 1005.97 1005.54 1005.08 1004.61 1004.12 1003.63 1003.15 1002.70 1002.27 1001.89 1001.57 1001.29 1001.08 1000.92 1000.82 1000.76 1000.74 1000.76 1000.80 1000.86 1000.93 1001.00 1001.06
1012.97 1012.86 1012.71 1012.51 1012.27 1011.99 1011.65 1011.28 1010.88 1010.45 1009.99 1009.53 1009.08 1008.63 1008.21 1007.81 1007.43 1007.07 1006.73 1006.40 1006.06 1005.72 1005.35 1004.97 1004.56 1004.13 1003.68 1003.24 1002.80 1002.39 1002.01 1001.68 1001.41 1001.19 1001.04 1000.95 1000.91 1000.92 1000.97 1001.05 1001.14 1001.23 1001.31 1001.38
1012.66 1012.53 1012.36 1012.15 1011.90 1011.61 1011.27 1010.88 1010.46 1010.01 1009.55 1009.07 1008.61 1008.16 1007.74 1007.36 1007.02 1006.71 1006.44 1006.18 1005.94 1005.68 1005.41 1005.12 1004.79 1004.43 1004.05 1003.64 1003.23 1002.83 1002.46 1002.12 1001.83 1001.61 1001.45 1001.35 1001.32 1001.34 1001.40 1001.49 1001.59 1001.68 1001.75 1001.80
1012.20 1012.04 1011.85 1011.62 1011.34 1011.03 1010.68 1010.28 1009.86 1009.40 1008.94 1008.48 1008.04 1007.62 1007.26 1006.94 1006.67 1006.45 1006.28 1006.14 1006.01 1005.87 1005.72 1005.53 1005.30 1005.02 1004.70 1004.34 1003.96 1003.57 1003.20 1002.85 1002.54 1002.30 1002.11 1002.00 1001.95 1001.96 1002.01 1002.08 1002.16 1002.23 1002.28 1002.28
1011.61 1011.41 1011.18 1010.92 1010.62 1010.29 1009.92 1009.52 1009.10 1008.66 1008.22 1007.80 1007.41 1007.06 1006.78 1006.55 1006.40 1006.30 1006.26 1006.25 1006.25 1006.25 1006.22 1006.15 1006.02 1005.83 1005.57 1005.26 1004.91 1004.54 1004.16 1003.79 1003.47 1003.19 1002.98 1002.83 1002.75 1002.72 1002.73 1002.77 1002.81 1002.84 1002.83 1002.78
Thickness
5761 5765 5762 5758 5758 5758 5750 5750 5745 5751 5755 5763 5767 5766 5766 5764 5759 5752 5746 5742 5738 5734 5729 5724 5718 5712 5707 5702 5697 5690 5684 5678 5673 5669 5663 5658 5652 5647 5642 5637 5633 5628 5622 5617
5752 5761 5759 5753 5757 5758 5755 5754 5752 5753 5755 5773 5771 5767 5762 5759 5755 5749 5745 5743 5739 5734 5729 5722 5717 5711 5706 5699 5694 5687 5680 5675 5671 5665 5659 5654 5649 5644 5638 5632 5627 5621 5616 5610
5742 5757 5750 5743 5757 5758 5756 5759 5755 5750 5760 5767 5762 5759 5759 5758 5755 5750 5748 5744 5739 5735 5729 5723 5717 5711 5703 5697 5691 5684 5677 5672 5667 5661 5656 5650 5645 5639 5633 5627 5621 5615 5609 5604
5742 5740 5720 5753 5773 5766 5758 5760 5764 5761 5763 5763 5760 5760 5761 5760 5756 5752 5749 5745 5740 5736 5730 5724 5717 5710 5701 5695 5687 5680 5674 5669 5664 5658 5652 5646 5639 5633 5627 5620 5614 5608 5602 5597
5738 5733 5737 5758 5767 5764 5754 5754 5769 5763 5762 5763 5761 5756 5758 5762 5758 5754 5751 5747 5742 5738 5733 5724 5716 5708 5699 5691 5684 5677 5671 5665 5660 5654 5647 5640 5633 5627 5621 5614 5608 5602 5597 5591
5732 5721 5721 5749 5764 5769 5758 5745 5767 5764 5759 5760 5753 5744 5754 5765 5760 5755 5752 5747 5742 5736 5729 5720 5712 5704 5694 5688 5681 5675 5669 5663 5656 5649 5641 5634 5627 5621 5615 5608 5602 5596 5591 5586
5729 5724 5739 5757 5762 5759 5735 5736 5757 5760 5757 5756 5751 5751 5759 5762 5758 5754 5750 5745 5739 5732 5724 5717 5709 5700 5690 5684 5678 5673 5666 5659 5651 5644 5636 5629 5622 5615 5608 5603 5597 5590 5585 5581
5728 5720 5728 5750 5752 5741 5737 5748 5751 5751 5752 5752 5752 5755 5755 5753 5750 5747 5743 5740 5734 5726 5719 5713 5705 5695 5686 5680 5675 5668 5661 5653 5646 5639 5632 5626 5618 5610 5603 5597 5591 5586 5581 5577
5734 5733 5737 5741 5737 5736 5738 5737 5740 5743 5746 5747 5746 5747 5748 5747 5745 5742 5738 5734 5729 5722 5714 5707 5700 5691 5682 5677 5670 5662 5653 5646 5639 5633 5626 5619 5611 5605 5599 5594 5588 5584 5579 5575
5728 5736 5731 5728 5727 5726 5726 5727 5731 5735 5737 5739 5738 5739 5739 5738 5736 5734 5731 5727 5723 5716 5708 5701 5694 5687 5679 5672 5664 5655 5647 5640 5634 5627 5621 5615 5607 5601 5596 5591 5586 5580 5575 5572
5720 5724 5723 5716 5710 5712 5714 5717 5720 5723 5725 5726 5726 5725 5725 5725 5723 5722 5720 5718 5714 5708 5701 5695 5688 5680 5673 5665 5656 5648 5641 5635 5629 5624 5618 5610 5603 5597 5591 5585 5580 5572 5570 5567
5711 5705 5705 5697 5699 5702 5702 5704 5706 5707 5709 5711 5711 5710 5711 5710 5709 5708 5706 5704 5701 5696 5692 5686 5679 5672 5665 5658 5649 5641 5636 5630 5625 5620 5613 5607 5600 5595 5589 5580 5573 5565 5557 5552
5698 5697 5694 5689 5690 5692 5693 5694 5695 5694 5694 5694 5695 5696 5695 5694 5694 5693 5692 5690 5687 5684 5681 5677 5672 5665 5659 5651 5642 5636 5631 5626 5620 5615 5609 5601 5596 5590 5586 5580 5571 5564 5558 5551
5686 5684 5677 5675 5676 5679 5680 5682 5683 5682 5681 5681 5680 5680 5680 5679 5678 5677 5675 5674 5673 5671 5668 5665 5661 5657 5651 5645 5638 5632 5626 5621 5613 5608 5602 5596 5590 5585 5581 5576 5572 5570 5563 5553
5672 5671 5666 5664 5664 5664 5665 5666 5665 5664 5664 5663 5664 5662 5661 5661 5660 5660 5660 5659 5658 5656 5654 5652 5649 5645 5641 5636 5630 5624 5619 5615 5609 5603 5597 5591 5586 5581 5577 5573 5569 5566 5563 5559
5658 5656 5654 5651 5648 5648 5649 5648 5647 5647 5648 5648 5648 5647 5646 5646 5645 5645 5644 5643 5640 5639 5637 5635 5633 5631 5628 5624 5619 5615 5611 5605 5598 5595 5590 5586 5581 5577 5573 5570 5567 5563 5560 5557
5642 5638 5636 5634 5633 5632 5632 5632 5633 5633 5634 5634 5633 5633 5632 5631 5630 5628 5627 5626 5624 5623 5621 5619 5617 5614 5612 5609 5606 5604 5603 5601 5589 5584 5581 5579 5576 5572 5569 5566 5563 5560 5558 5555
5627 5623 5621 5619 5618 5618 5619 5620 5620 5619 5619 5619 5620 5619 5616 5614 5613 5611 5611 5610 5609 5608 5606 5604 5600 5596 5596 5595 5593 5592 5591 5590 5586 5581 5577 5573 5569 5567 5564 5561 5559 5556 5555 5552
5614 5612 5610 5608 5607 5607 5606 5606 5607 5606 5605 5605 5603 5601 5600 5599 5597 5595 5595 5593 5592 5591 5590 5587 5580 5581 5582 5582 5578 5577 5577 5577 5575 5572 5568 5563 5559 5559 5558 5557 5555 5553 5551 5549
5602 5600 5599 5598 5597 5596 5594 5594 5593 5592 5590 5589 5587 5585 5584 5582 5580 5578 5577 5575 5575 5572 5569 5566 5565 5566 5566 5567 5561 5564 5565 5565 5564 5562 5559 5557 5556 5554 5553 5552 5551 5549 5547 5544
5591 5589 5588 5587 5585 5584 5582 5580 5578 5576 5575 5573 5571 5568 5567 5565 5564 5562 5560 5559 5557 5552 5549 5547 5548 5549 5549 5546 5542 5548 5551 5552 5551 5550 5548 5548 5548 5548 5547 5546 5545 5543 5541 5540
5578 5577 5575 5574 5572 5570 5568 5566 5564 5563 5560 5558 5555 5553 5551 5549 5548 5546 5544 5541 5539 5532 5529 5531 5531 5527 5524 5522 5529 5533 5535 5537 5538 5538 5537 5537 5538 5539 5539 5538 5538 5536 5535 5534
5565 5563 5561 5560 5558 5556 5555 5553 5552 5549 5546 5542 5540 5538 5536 5533 5531 5529 5528 5525 5520 5512 5510 5511 5507 5503 5501 5508 5514 5518 5521 5523 5524 5525 5525 5527 5528 5529 5529 5529 5529 5528 5527 5527
5552 5550 5548 5546 5545 5543 5541 5541 5538 5535 5532 5529 5528 5526 5522 5521 5520 5517 5513 5508 5501 5494 5495 5491 5487 5486 5486 5496 5500 5503 5505 5507 5509 5511 5514 5516 5518 5519 5519 5519 5519 5519 5520 5520
5539 5537 5535 5533 5532 5532 5531 5529 5527 5524 5522 5521 5518 5515 5512 5509 5507 5504 5498 5494 5488 5482 5483 5480 5475 5474 5477 5480 5483 5485 5488 5491 5495 5499 5503 5505 5508 5509 5509 5509 5510 5511 5512 5513
5526 5525 5525 5521 5519 5517 5518 5517 5516 5513 5511 5509 5507 5504 5502 5499 5496 5492 5487 5482 5477 5471 5470 5468 5467 5465 5466 5467 5469 5472 5476 5479 5484 5488 5491 5494 5497 5499 5500 5500 5501 5503 5504 5506
5517 5516 5514 5514 5513 5512 5510 5507 5505 5503 5501 5499 5497 5495 5492 5489 5486 5481 5476 5471 5467 5463 5459 5456 5455 5453 5454 5456 5458 5461 5463 5468 5473 5477 5481 5484 5487 5490 5491 5492 5494 5496 5498 5499